Location: Newark
(36.0797°N, 3.9744°E)
Time: 00:29:28
(UTC+00:00)

Vanguard 2 Rocket - Pass Details

Date: 16 December 2019
Orbit: 554 x 3326 km, 32.9° (Epoch: 27 January)

Event Time Altitude Azimuth Distance (km) Brightness Sun altitude
Rises 20:58:10 0° 281° (W) 5,723 11.6 -53.0°
Reaches altitude 10° 21:02:52 10° 275° (W) 4,233 10.7 -53.9°
Enters shadow 21:07:21 23° 262° (W) 2,822 9.6 -54.8°
Maximum altitude 21:12:12 39° 212° (SSW) 1,750 - -55.8°
Drops below altitude 10° 21:17:50 10° 144° (SE) 2,544 - -56.9°
Sets 21:20:01 0° 135° (SE) 3,258 - -57.3°
